Meeker, CO

11:55 AM MST on November 22, 2017 (GMT -0700)
Meeker

Weather History for KEEO - October, 2013

Change the Weather History Date:

Saturday, October 19, 2013

  Actual Average Record
Temperature  
Mean Temperature 40 °F 43 °F  
Max Temperature 57 °F 59 °F 80 °F (2003)
Min Temperature 22 °F 28 °F 16 °F (1999)
Degree Days  
Heating Degree Days 25 22  
Month to date heating degree days 426 346  
Since 1 July heating degree days 638 653  
Cooling Degree Days 0 0  
Month to date cooling degree days 0 0  
Year to date cooling degree days 324 172  
Moisture  
Dew Point 23 °F    
Average Humidity 56    
Maximum Humidity 88    
Minimum Humidity 24    
Precipitation  
Precipitation 0.00 in 0.06 in 0.44 in (2005)
Month to date precipitation 2.27 1.18  
Year to date precipitation 15.30 12.80  
Sea Level Pressure  
Sea Level Pressure 30.18 in    
Wind  
Wind Speed 4 mph (NNE)    
Max Wind Speed 14 mph    
Max Gust Speed 18 mph    
Visibility 10 miles    
Events      
T = Trace of Precipitation, MM = Missing Value Source: NWS Daily Summary

Daily Weather History Graph

Daily Weather History Graph

Search for Another Location

Airport or City:

Trip Planner

Search our weather history database for the weather conditions in past years. The results will help you decide how hot, cold, wet, or windy it might be!

Date:

Astronomy

Oct. 19, 2013 Rise Set
Actual Time 7:26 AM MDT 6:25 PM MDT
Civil Twilight 6:59 AM MDT 6:53 PM MDT
Nautical Twilight 6:27 AM MDT 7:24 PM MDT
Astronomical Twilight 5:56 AM MDT 7:55 PM MDT
Moon 6:55 PM MDT (10/19) 8:07 AM MDT (10/19)
Length of Visible Light 11h 53m
Length of Day
10h 58m
Full, 99% of the Moon is Illuminated
Oct 19
Full
Oct 26
Last Quarter
Nov 3
New
Nov 9
First Quarter
Nov 17
Full

Hourly Weather History & Observations

Time (MDT) Temp. Windchill Dew Point Humidity Pressure Visibility Wind Dir Wind Speed Gust Speed Precip Events Conditions
12:53 AM 27.0 °F 20.5 °F 21.9 °F 81% 30.27 in 10.0 mi NE 5.8 mph - N/A   Clear
1:53 AM 25.0 °F 18.1 °F 19.9 °F 81% 30.27 in 10.0 mi NE 5.8 mph - N/A   Clear
2:53 AM 25.0 °F 20.7 °F 19.9 °F 81% 30.26 in 10.0 mi Variable 3.5 mph - N/A   Clear
3:53 AM 23.0 °F - 19.0 °F 85% 30.26 in 10.0 mi Calm Calm - N/A   Clear
4:53 AM 27.0 °F 20.5 °F 19.9 °F 75% 30.24 in 10.0 mi SE 5.8 mph - N/A   Clear
5:53 AM 23.0 °F 18.4 °F 19.0 °F 85% 30.27 in 10.0 mi NE 3.5 mph - N/A   Clear
6:53 AM 23.0 °F 18.4 °F 19.0 °F 85% 30.29 in 10.0 mi NNE 3.5 mph - N/A   Clear
7:53 AM 23.0 °F 18.4 °F 18.0 °F 81% 30.32 in 10.0 mi ENE 3.5 mph - N/A   Clear
8:53 AM 30.0 °F - 21.9 °F 72% 30.32 in 10.0 mi Calm Calm - N/A   Clear
9:53 AM 36.0 °F - 21.0 °F 55% 30.28 in 10.0 mi Calm Calm - N/A   Clear
10:53 AM 42.1 °F - 25.0 °F 51% 30.23 in 10.0 mi Calm Calm - N/A   Clear
11:53 AM 48.0 °F - 24.1 °F 39% 30.17 in 10.0 mi Calm Calm - N/A   Clear
12:53 PM 51.1 °F - 24.1 °F 35% 30.15 in 10.0 mi Calm Calm - N/A   Clear
1:53 PM 53.1 °F - 24.1 °F 32% 30.12 in 10.0 mi SSW 3.5 mph - N/A   Clear
2:53 PM 55.9 °F - 23.0 °F 28% 30.08 in 7.0 mi WNW 9.2 mph - N/A   Clear
3:53 PM 57.0 °F - 21.0 °F 25% 30.07 in 10.0 mi West 9.2 mph - N/A   Clear
4:53 PM 57.0 °F - 21.9 °F 26% 30.04 in 10.0 mi West 9.2 mph - N/A   Clear
5:53 PM 53.1 °F - 25.0 °F 34% 30.07 in 10.0 mi WNW 5.8 mph - N/A   Clear
6:53 PM 46.0 °F 43.1 °F 26.1 °F 46% 30.12 in 10.0 mi West 5.8 mph - N/A   Clear
7:53 PM 42.1 °F 39.2 °F 26.1 °F 53% 30.14 in 10.0 mi NE 4.6 mph - N/A   Clear
8:53 PM 39.0 °F 36.8 °F 27.0 °F 62% 30.12 in 10.0 mi ENE 3.5 mph - N/A   Clear
9:53 PM 39.9 °F - 26.1 °F 58% 30.10 in 10.0 mi Calm Calm - N/A   Clear
10:53 PM 36.0 °F 32.1 °F 28.0 °F 73% 30.09 in 10.0 mi NNE 4.6 mph - N/A   Clear
11:53 PM 35.1 °F 31.0 °F 28.9 °F 78% 30.06 in 10.0 mi NE 4.6 mph - N/A   Clear